Other Public Products
Issued by NWS Grand Forks, ND

Home | Current Version | Previous Version | Graphics & Text | Print | Product List | Glossary On
Versions: 1 2 3 4 5 6 7 8 9 10 11 12 13 14 15 16 17 18 19 20 21 22 23 24 25 26 27 28 29 30 31 32 33 34 35 36 37 38 39 40 41 42 43 44 45 46 47 48 49 50
000
FPUS83 KFGF 230931
OPUFGF
PRAIRIE TO PINES WEATHER ROUNDUP
NATIONAL WEATHER SERVICE EASTERN NORTH DAKOTA/GRAND FORKS ND
400 AM CDT WED JUL 23 2014

 **SATELLITE DATA USED TO AUGMENT SKY COVER AT AUTOMATED STATIONS**
 *****  WEATHER ACROSS EASTERN NORTH DAKOTA  *****

CITY           SKY/WX    TMP DP  RH WIND       PRES   REMARKS
GRAND FORKS    MOCLDY    59  57  93 N7        30.26S
GRAND FORKS AF PTCLDY    59  59  99 N7        30.27F
GRAND CITY NWS   N/A     59 N/A N/A N3          N/A
BUXTON           N/A     61  60  95 NW3         N/A
DEVILS LAKE    PTCLDY    61  55  82 E8        30.26F
FARGO          PTCLDY    58  55  90 CALM      30.25S
WAHPETON ARPT  MOSUNNY   55  52  88 N5        30.27R
$$

 *****  WEATHER ACROSS CENTRAL AND WESTERN NORTH DAKOTA  *****

CITY           SKY/WX    TMP DP  RH WIND       PRES   REMARKS
JAMESTOWN      PTCLDY    61  57  87 SE3       30.26F
BISMARCK       MOCLDY    65  62  90 E5        30.25S
MINOT          CLOUDY    65  63  93 CALM      30.25F
MINOT AFB      CLOUDY    65  64  99 E5        30.25F
GARRISON         N/A     66  64  93 N6        30.28R
WILLISTON      CLEAR     67  62  84 SE3       30.22F
DICKINSON      PTCLDY    61  58  90 E5        30.23F
HETTINGER      CLEAR     61  58  90 E5        30.25R
$$

 *****  OTHER OBSERVATIONS NORTHEAST NORTH DAKOTA  *****

CITY           SKY/WX    TMP DP  RH WIND       PRES   REMARKS
WALHALLA       CLOUDY    57  57 100 NW5         N/A
LANGDON        CLOUDY    57  54  88 NE6       30.31R
CAVALIER       PTSUNNY   59  55  88 N5        30.30S
GRAFTON        FAIR      57  57 100 N6        30.28S
CANDO          CLOUDY    61  55  82 NE6       30.30S
FORT TOTTEN      N/A     64  60  87 E3        29.95
ROLLA          CLOUDY    55  55 100 CALM      30.32F
RUGBY          FAIR      59  57  94 E10       30.28R
 ***** THE ABOVE OBSERVATIONS ARE NON NWS ARE NOT QUALITY
        CONTROLLED AND MAY MIS-REPORT RAIN FOR SNOW...
$$

 *****  OTHER OBSERVATIONS SOUTHEAST NORTH DAKOTA *****

CITY           SKY/WX    TMP DP  RH WIND       PRES   REMARKS
COOPERSTOWN    NOT AVBL
VALLEY CITY    PTSUNNY   61  61 100 E5        30.26F
OAKES          NOT AVBL
GWINNER        SUNNY     59  59 100 N3        30.27F
SHEYENNE NWR     N/A     56  55  98 CALM      29.95S
BUFFALO        NOT AVBL
WYNDMERE       NOT AVBL
 ***** THE ABOVE OBSERVATIONS ARE NON NWS ARE NOT QUALITY
       CONTROLLED AND MAY MIS-REPORT RAIN FOR SNOW...
$$

  *****  WEATHER ACROSS NORTHERN MINNESOTA  *****

CITY           SKY/WX    TMP DP  RH WIND       PRES   REMARKS
FLAG ISLAND    PTCLDY    63  55  77 NE3       30.25S
WARROAD        CLEAR     55  52  88 NW6       30.27R
ROSEAU         CLEAR     54  48  82 W5        30.28R
HALLOCK        CLEAR     57  55  94 N6        30.28F
THF RVR FALLS  MOCLDY    59  55  88 CALM      30.27S
HALSTAD          N/A     55  54  94 N3          N/A
FOSSTON        CLEAR     54  52  94 CALM      30.28R
BAUDETTE       CLEAR     58  55  90 NE3       30.26R
WASKISH        CLEAR     57  54  88 N5        30.25R
CROOKSTON      CLEAR     61  55  82 NE5       30.27S
$$
  *****  WEATHER ACROSS CENTRAL AND WEST MINNESOTA  *****

CITY           SKY/WX    TMP DP  RH WIND       PRES   REMARKS
BEMIDJI        CLEAR     52  51  97 NW6       30.26R
PARK RAPIDS    PTCLDY    54  52  93 CALM      30.25S
WADENA         CLEAR     55  54  94 NW5       30.26R
DETROIT LAKES  CLEAR     59  55  88 NW3       30.28R
MOORHEAD       PTCLDY    59  59 100 CALM      30.27R
FERGUS FALLS   CLEAR     61  52  72 NE5       30.26R
ELBOW LAKE     FAIR      60  56  87 N5        30.26R
MORRIS MN      CLEAR     55  55 100 CALM      30.24S
STAPLES        CLEAR     55  52  88 CALM      30.25R
WHEATON        CLEAR     55  55 100 CALM      30.28R
$$
  *****  WEATHER ELSEWHERE ACROSS MINNESOTA  *****

CITY           SKY/WX    TMP DP  RH WIND       PRES   REMARKS
DULUTH         PTCLDY    58  52  80 N7        30.20R
INTRNTL FALLS  PTCLDY    53  52  96 CALM      30.24R
ELY            CLEAR     52  48  87 CALM      30.21S
CLOQUET        CLEAR     55  50  82 NW6       30.20S
BRAINERD       CLEAR     55  54  96 CALM      30.23S
HIBBING        CLEAR     54  51  90 NW5       30.21S
ALEXANDRIA     CLEAR     62  58  86 N5        30.26S
SAINT CLOUD    CLEAR     58  54  86 N3        30.22R
MINNEAPOLIS    CLEAR     65  57  75 N6        30.19R
$$

  *****  WEATHER ACROSS SOUTH DAKOTA  *****

CITY           SKY/WX    TMP DP  RH WIND       PRES   REMARKS
SIOUX FALLS    CLEAR     60  56  86 NE3       30.23F
BROOKINGS      NOT AVBL
WATERTOWN      CLEAR     56  54  93 CALM      30.26S
HURON          CLEAR     61  58  90 E5        30.24R
SISSETON         N/A     57  56  96 N3        30.25S
ABERDEEN       CLEAR     59  57  93 CALM      30.26R
MITCHELL       CLEAR     62  58  86 E5        30.24S
PIERRE         CLOUDY    65  60  84 SE6       30.23R
MOBRIDGE       PTCLDY    66  60  81 E8        30.21F
RAPID CITY     CLOUDY    64  57  78 W12       30.26S
$$

  *****  SOME WEATHER IN NEARBY STATES *****

CITY           SKY/WX    TMP DP  RH WIND       PRES   REMARKS
GLASGOW MT     PTCLDY    64  57  78 E10       30.18F
GREAT FALLS MT PTCLDY    63  56  78 N6        30.13F
CHEYENNE WY    CLEAR     65  61  87 S14       30.39F
SCOTTSBLUFF NE CLEAR     69  64  84 SE13      30.29F
OMAHA NE       CLEAR     66  59  78 NW7       30.18F
DES MOINES IA  PTCLDY    70  59  68 N10       30.15R
DAVENPORT IA   CLEAR     69  65  86 N10       30.09R
CHICAGO IL     PTCLDY    66  53  63 N16G28    30.06F
EAU CLAIRE WI  CLEAR     57  56  96 N3        30.18R
LA CROSSE WI   CLEAR     65  58  78 N5        30.16R
$$

  *****  SOME NATIONAL WEATHER *****

CITY           SKY/WX    TMP DP  RH WIND       PRES   REMARKS
LA GUARDIA NY  PTCLDY    74  62  66 S9        29.98F
RALEIGH NC     FOG       72  70  94 CALM      30.07S VSB 1
ATLANTA GA     PTCLDY    73  68  84 SE3       30.08S
NEW ORLEANS LA MOCLDY    78  73  84 NE7       30.00F
OKLAHOMA CITY  PTCLDY    76  73  91 S3        30.11S
ALBUQUERQUE NM CLEAR     72  55  55 NW3       30.34S
SALT LAKE CITY PTCLDY    75  39  27 SE9       30.09S
LOS ANGELES CA CLEAR     67  61  81 SE5       30.00S
BOISE ID       LGT RAIN  72  55  56 NE10      30.05S
SEATTLE WA     LGT RAIN  64  61  90 E7        30.01F
$$

*** WEATHER ACROSS MANITOBA...SASKATCHEWAN AND ONTARIO ***
                ***ONTARIO***

CITY           SKY/WX    TMP DP  RH WIND       PRES   REMARKS
GERALDTON      PTCLDY    48  48 100 W2        30.16R
THUNDER BAY    CLOUDY    59  55  88 SW2       30.18R
SIOUX LOOKOUT  CLEAR     46  46 100 N2        30.24S
TORONTO        MOCLDY    75  70  83 W8        29.83F
BIG TROUT LK   CLEAR     55  48  76 W9        30.15S
PICKLE LAKE    NOT AVBL
DRYDEN         CLEAR     54  50  87 NE3       30.25R
KENORA         MOCLDY    59  52  77 N6        30.28R
$$
                *** MANITOBA***

CITY           SKY/WX    TMP DP  RH WIND       PRES   REMARKS
BRANDON        PTCLDY    55  52  88 NE7       30.31F
DAUPHIN        CLEAR     50  48  93 CALM      30.32S
ISLAND LAKE    PTCLDY    61  48  63 W9        30.25
PILOT MOUND      N/A     54  52  94 E5          N/A
THE PAS        CLEAR     52  50  93 CALM      30.29R
THOMPSON       PTCLDY    48  46  93 W5        30.24R
WINNIPEG       PTCLDY    48  46  93 NW3       30.31R
LYNN LAKE      CLEAR     48  46  93 SW7       30.25S
CHURCHILL      CLOUDY    61  52  72 W12       30.02S
GILLAM         MOCLDY    59  52  77 W9        30.15R
$$
                ***SASKATCHEWAN***

CITY           SKY/WX    TMP DP  RH WIND       PRES   REMARKS
ESTEVAN        CLOUDY    61  57  88 E10       30.27F
KINDERSLEY     PTCLDY    63  57  82 SE12      30.17F
LLOYDMINSTER   CLOUDY    63  55  77 SE10G17   30.15F
PRINCE ALBERT  CLEAR     52  52 100 E6        30.26F
REGINA         PTCLDY    63  54  72 E13       30.26F



USA.gov is the U.S. government's official web portal to all federal, state and local government web resources and services.